Regional Weather Roundup
Issued by NWS

Home | Current Version | Previous Version | Text Only | Print | Product List | Glossary On
Versions: 1 2 3 4 5 6 7 8 9 10 11 12 13 14 15 16 17 18 19 20 21 22 23 24 25 26 27 28 29 30 31 32 33 34 35 36 37 38 39 40 41 42 43 44 45 46 47 48 49 50
000
ASUS45 KABQ 270001
RWRNM
NEW MEXICO REGIONAL WEATHER ROUNDUP
NATIONAL WEATHER SERVICE ALBUQUERQUE NM
600 PM MDT FRI MAY 26 2017

NOTE: "FAIR" MEANS FEW OR NO CLOUDS BELOW 12,000 FEET AGL WITH NO
       SIGNIFICANT WEATHER OR OBSTRUCTIONS TO VISION.

      THIS PRODUCT IS RELEASED AS TWO VERSIONS.  ONE VERSION NEAR
      THE TOP OF THE HOUR CONTAINING PRELIMINARY DATA FROM ALBUQUERQUE
      AND OTHER STATIONS.  A FINAL VERSION WITH ADDITIONAL DATA IS
      ISSUED ABOUT 10 MINUTES AFTER THE HOUR.

NMZ501-503-504-510>518-270100-
NORTHWEST PLATEAU/NORTHCENTRAL MOUNTAINS

CITY           SKY/WX    TMP DP  RH WIND       PRES   REMARKS
FARMINGTON     FAIR      79   6   6 SW17      29.88S
6HR MIN TEMP:  73; 6HR MAX TEMP:  81;

LOS ALAMOS     FAIR      75  13   9 SW13G20   30.01F
SANTA FE       FAIR      77  12   8 W18G25    29.94F
6HR MIN TEMP:  72; 6HR MAX TEMP:  81;

TAOS           FAIR      72  16  12 SW17      30.00F
ANGEL FIRE     FAIR      64  17  16 SW14G23   30.08S

$$
NMZ402-403-502-505>509-270100-
WESTCENTRAL MOUNTAINS/SOUTHWEST MOUNTAINS

CITY           SKY/WX    TMP DP  RH WIND       PRES   REMARKS
GALLUP         FAIR      74  10   8 W25G37    30.00F
6HR MIN TEMP:  70; 6HR MAX TEMP:  76;

GRANTS         FAIR      76  10   8 W15G31    30.02S
SILVER CITY    FAIR      82  19   9 W21G29    30.01S

$$
NMZ407-409-411-412-270100-
SOUTHERN DESERTS

CITY           SKY/WX    TMP DP  RH WIND       PRES   REMARKS
DEMING         FAIR      89  22   8 W22G31    29.92F
6HR MIN TEMP:  84; 6HR MAX TEMP:  91;

LAS CRUCES     FAIR      90  24   9 SW17G30   29.94F
HOLLOMAN AFB   FAIR      91  19   7 SW29      29.92S
ALAMOGORDO     FAIR      91  23   8 W18G26    29.91S
T OR C         LGT RAIN  88  18   7 SW20G28   29.91S
6HR MIN TEMP:  83; 6HR MAX TEMP:  91; 6HR PCP:  0.01;


$$
NMZ519>523-270100-
CENTRAL VALLEYS/CENTRAL HIGHLANDS

CITY           SKY/WX    TMP DP  RH WIND       PRES   REMARKS
ALBUQUERQUE    FAIR      86   8   5 W23G30    29.89F
6HR MIN TEMP:  75; 6HR MAX TEMP:  86;

DOUBLE EAGLE   MOSUNNY   82  16   8 W24G35    29.93S
MORIARTY ARPT  FAIR      78  18  10 W12       29.98R
6HR MIN TEMP:  76; 6HR MAX TEMP:  84;

CLINES CORNERS FAIR      72  17  12 W9        30.02F
6HR MIN TEMP:  71; 6HR MAX TEMP:  77;

BELEN          FAIR      86  12   6 SW16G26   29.89S
6HR MIN TEMP:  78; 6HR MAX TEMP:  89;

SOCORRO        FAIR      87  14   6 SW22G29   29.89S
6HR MIN TEMP:  83; 6HR MAX TEMP:  91;


$$
NMZ524>526-539-540-270100-
SOUTHCENTRAL MOUNTAINS

CITY           SKY/WX    TMP DP  RH WIND       PRES   REMARKS
RUIDOSO        NOT AVBL

$$
NMZ527>531-270100-
NORTHEAST HIGHLANDS/NORTHEAST PLAINS

CITY           SKY/WX    TMP DP  RH WIND       PRES   REMARKS
LAS VEGAS      FAIR      76  13   9 SW22      29.99F
6HR MIN TEMP:  72; 6HR MAX TEMP:  77;

RATON          FAIR      78  14   9 W25G32    29.88F
6HR MIN TEMP:  72; 6HR MAX TEMP:  80;

CLAYTON        FAIR      78  33  19 S18       29.87F
6HR MIN TEMP:  70; 6HR MAX TEMP:  79;


$$
NMZ532>537-270100-
EASTCENTRAL PLAINS

CITY           SKY/WX    TMP DP  RH WIND       PRES   REMARKS
SANTA ROSA     FAIR      86  21   9 SW14G21   29.86S
TUCUMCARI      FAIR      91  20   7 SW20      29.79F
6HR MIN TEMP:  78; 6HR MAX TEMP:  92;

CANNON AFB     FAIR      89  17   7 SW17G29   29.88S
6HR MIN TEMP:  82; 6HR MAX TEMP:  90;

CLOVIS AIRPORT FAIR      88  27  11 S20       29.87S

$$
NMZ028-029-538-270100-
SOUTHEAST PLAINS

CITY           SKY/WX    TMP DP  RH WIND       PRES   REMARKS
ROSWELL        FAIR      95  15   5 W21       29.82R
6HR MIN TEMP:  88; 6HR MAX TEMP:  98;

ARTESIA        FAIR      93  28  10 SW22G33   29.85S
CARLSBAD       FAIR      94  27   9 SW12G23   29.85R
6HR MIN TEMP:  89; 6HR MAX TEMP:  98;

HOBBS          SUNNY     91  25   9 S15G21    29.89S


$$



USA.gov is the U.S. government's official web portal to all federal, state and local government web resources and services.